QPF
0.00 0.00 0.00 0.00 0.00 0.00 0.00 0.00 0.00 0.00 0.00 0.00 0.00 0.00 0.00 0.00 0.00 0.00 0.00 0.00 0.00 0.00 0.00 0.00 0.00 0.00 0.00 0.00 0.01 0.01 0.05 0.06 0.05 0.05 0.04 0.03 0.01 0.00 0.00 0.00 0.00 0.00 0.00 0.00
0.00 0.00 0.00 0.00 0.00 0.00 0.00 0.00 0.00 0.00 0.00 0.00 0.00 0.00 0.00 0.00 0.00 0.00 0.00 0.00 0.00 0.00 0.00 0.00 0.00 0.00 0.00 0.00 0.00 0.00 0.01 0.01 0.02 0.03 0.02 0.01 0.00 0.00 0.00 0.00 0.00 0.00 0.00 0.00
0.01 0.00 0.00 0.00 0.00 0.00 0.00 0.00 0.00 0.00 0.00 0.00 0.00 0.00 0.00 0.00 0.00 0.00 0.00 0.00 0.00 0.00 0.00 0.00 0.00 0.00 0.00 0.00 0.00 0.00 0.00 0.00 0.00 0.00 0.01 0.00 0.00 0.00 0.00 0.00 0.00 0.00 0.00 0.00
0.00 0.00 0.00 0.00 0.00 0.00 0.00 0.00 0.00 0.00 0.00 0.00 0.00 0.00 0.00 0.00 0.00 0.00 0.00 0.00 0.00 0.00 0.00 0.00 0.02 0.00 0.00 0.00 0.00 0.00 0.00 0.00 0.00 0.00 0.00 0.00 0.00 0.00 0.00 0.00 0.00 0.00 0.00 0.00
0.00 0.00 0.00 0.00 0.00 0.00 0.00 0.00 0.00 0.00 0.00 0.00 0.00 0.00 0.00 0.00 0.00 0.00 0.00 0.00 0.00 0.00 0.01 0.03 0.04 0.02 0.00 0.00 0.00 0.00 0.00 0.00 0.00 0.00 0.00 0.00 0.00 0.00 0.00 0.00 0.00 0.00 0.00 0.00
0.00 0.01 0.00 0.00 0.00 0.00 0.00 0.00 0.00 0.00 0.00 0.00 0.00 0.00 0.00 0.00 0.00 0.00 0.00 0.00 0.00 0.01 0.02 0.03 0.04 0.03 0.01 0.00 0.00 0.00 0.00 0.00 0.00 0.00 0.00 0.00 0.00 0.00 0.00 0.00 0.00 0.00 0.00 0.00
0.00 0.01 0.01 0.00 0.00 0.00 0.00 0.00 0.00 0.00 0.00 0.00 0.00 0.00 0.00 0.00 0.00 0.00 0.00 0.00 0.00 0.00 0.01 0.01 0.01 0.01 0.02 0.02 0.01 0.00 0.00 0.00 0.00 0.00 0.00 0.00 0.00 0.00 0.00 0.00 0.00 0.00 0.00 0.00
0.00 0.00 0.00 0.00 0.00 0.00 0.00 0.00 0.00 0.00 0.00 0.00 0.00 0.00 0.00 0.00 0.00 0.00 0.00 0.00 0.00 0.00 0.01 0.00 0.01 0.02 0.02 0.01 0.01 0.01 0.00 0.00 0.00 0.00 0.00 0.00 0.00 0.00 0.00 0.00 0.00 0.00 0.00 0.00
0.00 0.00 0.00 0.00 0.00 0.00 0.00 0.00 0.00 0.00 0.00 0.00 0.00 0.00 0.00 0.00 0.00 0.00 0.00 0.00 0.00 0.00 0.00 0.00 0.00 0.01 0.01 0.00 0.01 0.01 0.00 0.00 0.00 0.00 0.00 0.00 0.00 0.00 0.00 0.00 0.00 0.00 0.00 0.00
0.00 0.00 0.00 0.00 0.00 0.00 0.00 0.00 0.00 0.00 0.00 0.00 0.00 0.00 0.00 0.00 0.00 0.00 0.00 0.00 0.00 0.00 0.00 0.00 0.00 0.00 0.01 0.02 0.02 0.01 0.00 0.00 0.00 0.00 0.00 0.00 0.00 0.00 0.00 0.00 0.00 0.00 0.00 0.00
0.00 0.00 0.00 0.00 0.00 0.00 0.00 0.00 0.00 0.00 0.00 0.00 0.00 0.00 0.00 0.00 0.00 0.00 0.00 0.00 0.00 0.00 0.00 0.00 0.00 0.01 0.01 0.01 0.01 0.01 0.00 0.00 0.00 0.00 0.00 0.00 0.00 0.00 0.00 0.00 0.00 0.00 0.00 0.00
0.00 0.00 0.00 0.00 0.00 0.00 0.00 0.00 0.00 0.00 0.00 0.00 0.00 0.00 0.00 0.00 0.00 0.01 0.00 0.00 0.00 0.00 0.00 0.00 0.00 0.00 0.00 0.00 0.00 0.01 0.00 0.00 0.00 0.00 0.00 0.00 0.00 0.00 0.00 0.00 0.00 0.00 0.00 0.00
0.00 0.00 0.00 0.00 0.00 0.00 0.00 0.00 0.00 0.00 0.00 0.00 0.00 0.00 0.00 0.00 0.00 0.00 0.00 0.00 0.00 0.00 0.00 0.00 0.00 0.00 0.00 0.00 0.00 0.00 0.00 0.00 0.00 0.00 0.00 0.00 0.00 0.00 0.00 0.00 0.00 0.00 0.00 0.00
0.00 0.00 0.00 0.00 0.00 0.00 0.00 0.00 0.00 0.00 0.00 0.00 0.00 0.00 0.00 0.00 0.00 0.00 0.00 0.00 0.00 0.00 0.00 0.00 0.00 0.00 0.00 0.00 0.00 0.00 0.00 0.00 0.00 0.00 0.00 0.00 0.00 0.00 0.00 0.00 0.00 0.00 0.00 0.00
0.00 0.00 0.00 0.00 0.00 0.00 0.00 0.00 0.00 0.00 0.00 0.00 0.00 0.00 0.00 0.00 0.00 0.00 0.00 0.00 0.00 0.00 0.00 0.00 0.00 0.00 0.00 0.00 0.00 0.00 0.00 0.00 0.00 0.00 0.00 0.00 0.00 0.00 0.00 0.00 0.00 0.00 0.00 0.00
0.00 0.00 0.00 0.00 0.00 0.00 0.00 0.00 0.00 0.00 0.00 0.00 0.00 0.00 0.00 0.00 0.00 0.00 0.00 0.00 0.00 0.00 0.00 0.00 0.00 0.00 0.00 0.00 0.00 0.00 0.00 0.00 0.00 0.00 0.00 0.00 0.00 0.00 0.00 0.00 0.00 0.00 0.00 0.00
0.00 0.00 0.00 0.00 0.00 0.00 0.00 0.00 0.00 0.00 0.00 0.00 0.00 0.00 0.00 0.00 0.00 0.00 0.00 0.00 0.00 0.00 0.00 0.00 0.00 0.00 0.00 0.00 0.00 0.00 0.00 0.00 0.00 0.00 0.00 0.00 0.00 0.00 0.00 0.00 0.00 0.00 0.00 0.00
0.00 0.00 0.00 0.00 0.00 0.00 0.00 0.00 0.00 0.00 0.00 0.01 0.02 0.00 0.00 0.00 0.00 0.00 0.00 0.00 0.00 0.00 0.00 0.00 0.00 0.00 0.00 0.00 0.00 0.00 0.00 0.00 0.00 0.00 0.00 0.00 0.00 0.00 0.00 0.00 0.00 0.00 0.00 0.00
0.00 0.00 0.00 0.00 0.00 0.00 0.00 0.00 0.00 0.00 0.00 0.01 0.03 0.01 0.00 0.00 0.00 0.00 0.00 0.00 0.00 0.00 0.00 0.00 0.00 0.00 0.00 0.00 0.00 0.00 0.00 0.00 0.00 0.00 0.00 0.00 0.00 0.00 0.00 0.00 0.00 0.00 0.00 0.00
0.00 0.00 0.00 0.00 0.00 0.00 0.00 0.00 0.00 0.00 0.00 0.00 0.02 0.01 0.00 0.00 0.00 0.00 0.00 0.00 0.00 0.00 0.00 0.00 0.00 0.00 0.00 0.00 0.00 0.00 0.00 0.00 0.00 0.00 0.00 0.00 0.00 0.00 0.00 0.00 0.00 0.00 0.00 0.00
0.00 0.00 0.00 0.00 0.00 0.00 0.00 0.00 0.00 0.00 0.00 0.00 0.00 0.00 0.00 0.00 0.00 0.00 0.00 0.00 0.00 0.00 0.00 0.00 0.00 0.00 0.00 0.00 0.00 0.00 0.00 0.00 0.00 0.00 0.00 0.00 0.00 0.00 0.00 0.00 0.00 0.00 0.00 0.00
0.00 0.00 0.00 0.00 0.00 0.00 0.00 0.00 0.00 0.00 0.00 0.00 0.00 0.00 0.00 0.00 0.00 0.00 0.00 0.00 0.00 0.00 0.00 0.00 0.00 0.00 0.00 0.00 0.00 0.00 0.00 0.00 0.00 0.00 0.00 0.00 0.00 0.00 0.00 0.00 0.00 0.00 0.00 0.00
0.00 0.00 0.00 0.00 0.00 0.00 0.00 0.00 0.00 0.00 0.00 0.00 0.00 0.00 0.00 0.00 0.00 0.00 0.00 0.00 0.00 0.00 0.00 0.00 0.00 0.00 0.00 0.00 0.00 0.00 0.00 0.00 0.00 0.00 0.00 0.00 0.00 0.00 0.00 0.00 0.00 0.00 0.00 0.00
0.00 0.00 0.00 0.00 0.00 0.00 0.00 0.00 0.00 0.00 0.00 0.00 0.00 0.00 0.00 0.00 0.00 0.00 0.00 0.00 0.00 0.00 0.00 0.00 0.00 0.00 0.00 0.00 0.00 0.00 0.00 0.00 0.00 0.00 0.00 0.00 0.00 0.00 0.00 0.00 0.00 0.00 0.00 0.00
0.00 0.00 0.00 0.00 0.00 0.00 0.00 0.00 0.00 0.00 0.00 0.00 0.00 0.00 0.00 0.00 0.00 0.00 0.00 0.00 0.00 0.00 0.00 0.00 0.00 0.00 0.00 0.00 0.00 0.00 0.00 0.00 0.00 0.00 0.00 0.00 0.00 0.00 0.00 0.00 0.00 0.00 0.00 0.00
0.00 0.00 0.00 0.00 0.00 0.00 0.00 0.00 0.00 0.00 0.00 0.00 0.00 0.00 0.00 0.00 0.00 0.00 0.00 0.00 0.00 0.00 0.00 0.00 0.00 0.00 0.00 0.00 0.00 0.00 0.00 0.00 0.00 0.00 0.00 0.00 0.00 0.00 0.00 0.00 0.00 0.00 0.00 0.00
0.00 0.00 0.00 0.00 0.00 0.00 0.00 0.00 0.00 0.00 0.00 0.00 0.00 0.00 0.00 0.00 0.00 0.00 0.00 0.00 0.00 0.00 0.00 0.00 0.00 0.00 0.00 0.00 0.00 0.00 0.00 0.00 0.00 0.00 0.00 0.00 0.00 0.00 0.00 0.00 0.00 0.00 0.00 0.00
MSLP
1003.47 1002.99 1002.92 1002.89 1002.80 1002.99 1003.26 1003.18 1003.56 1002.82 1002.36 1000.84 1001.60 1001.28 1001.01 1000.80 1000.36 999.76 999.24 998.76 997.56 996.41 995.54 995.14 995.07 994.70 994.53 994.50 994.48 994.03 993.88 994.52 995.43 995.20 995.18 995.35 996.12 996.86 997.53 998.74 999.89 1000.19 1001.43 1002.94
1003.55 1003.00 1002.99 1003.24 1003.07 1002.80 1002.93 1002.84 1003.03 1002.75 1002.46 1001.78 1002.23 1001.51 1001.12 1000.92 1000.65 999.49 998.92 998.18 997.14 996.11 995.09 994.94 994.96 994.88 994.62 994.66 995.24 995.13 994.09 994.51 995.02 996.60 996.58 996.59 996.56 996.73 998.06 999.51 1000.02 1000.58 1001.74 1002.93
1003.79 1003.38 1003.26 1003.08 1001.64 1001.98 1002.20 1002.49 1002.73 1002.91 1002.50 1002.60 1002.25 1001.96 1001.74 1001.03 1000.61 999.34 998.77 998.25 997.36 996.35 994.89 994.74 994.70 994.84 994.89 995.03 995.66 995.84 995.82 996.00 996.34 995.91 996.66 996.54 997.48 997.80 999.16 999.42 1000.32 1001.30 1002.22 1003.14
1004.14 1003.90 1003.31 1002.13 1001.52 1001.67 1002.05 1002.55 1002.79 1002.91 1002.76 1002.49 1002.32 1002.13 1001.53 1000.95 999.84 999.26 998.87 998.20 997.26 996.28 995.30 994.45 994.46 994.68 994.78 995.18 995.68 996.08 996.52 996.24 997.14 997.46 997.39 998.71 998.50 999.14 1000.00 1000.40 1000.92 1001.76 1002.90 1003.56
1004.81 1004.24 1003.30 1002.44 1002.21 1002.24 1002.45 1002.56 1002.50 1002.82 1002.64 1002.32 1002.08 1001.78 1000.51 999.78 999.39 999.15 998.54 997.80 997.12 996.21 995.39 994.75 994.29 994.55 994.96 995.15 995.98 996.26 996.42 997.20 997.81 998.12 997.96 998.01 999.18 999.17 1000.55 1001.58 1002.01 1002.44 1003.33 1003.81
1005.30 1004.54 1003.44 1002.34 1002.00 1002.26 1002.73 1002.77 1002.32 1002.38 1002.29 1002.28 1002.18 1002.04 999.88 998.88 998.74 998.45 997.73 997.02 996.29 995.70 995.06 994.60 994.24 994.27 994.99 995.76 995.81 996.52 996.74 997.55 998.09 999.24 999.86 999.22 999.55 1000.60 1001.44 1001.86 1002.04 1002.95 1003.38 1004.54
1005.00 1004.49 1003.38 1002.40 1002.35 1002.62 1003.05 1002.32 1001.82 1001.94 1001.86 1001.81 1001.79 1000.99 999.41 998.35 997.38 997.35 996.68 995.85 995.24 994.86 994.30 993.66 993.50 994.02 994.45 995.75 995.56 996.12 996.82 997.80 998.82 999.66 1000.49 1000.84 1001.35 1000.58 1001.82 1003.43 1003.84 1002.94 1003.70 1004.96
1004.50 1004.16 1003.16 1002.23 1002.70 1002.61 1001.65 1001.21 1001.31 1001.30 1001.18 1000.85 1000.31 999.80 999.37 998.30 997.17 995.72 995.03 994.35 993.39 993.44 993.18 992.98 993.44 993.87 994.56 995.22 995.78 996.23 997.01 998.24 999.09 999.94 1000.55 1001.56 1001.90 1002.03 1001.58 1003.47 1004.19 1004.97 1004.81 1004.74
1003.84 1002.94 1001.90 1001.82 1001.46 1000.88 1000.85 1000.89 1000.76 1000.83 1000.26 1000.07 999.95 999.19 998.84 997.92 996.63 995.28 993.60 991.87 990.86 991.53 992.22 992.64 993.22 993.48 994.33 995.50 995.94 996.26 997.34 998.62 999.35 999.98 1001.06 1002.05 1002.22 1002.65 1002.45 1003.00 1003.94 1005.26 1006.14 1005.90
1002.81 1001.87 1001.66 1001.24 1001.06 1000.86 1000.87 1000.79 1000.48 1000.21 999.98 999.80 999.38 998.76 998.36 997.54 996.30 994.97 993.44 990.71 990.20 990.79 991.62 992.84 993.36 994.00 994.14 995.74 996.34 997.26 998.01 998.79 999.76 1000.26 1001.16 1002.56 1002.07 1002.85 1003.49 1003.97 1004.72 1005.34 1006.24 1006.78
1002.48 1001.98 1001.56 1001.06 1000.89 1000.84 1000.60 1000.34 999.97 999.44 999.28 998.84 998.54 998.33 998.01 997.00 995.96 994.71 993.32 992.01 991.14 991.78 992.57 993.69 993.97 995.22 995.95 996.28 997.10 998.00 998.76 999.98 1000.36 1000.16 1001.68 1002.81 1002.73 1002.78 1002.98 1004.26 1005.15 1005.35 1005.79 1006.07
1002.60 1002.26 1002.24 1001.63 1001.03 1000.92 1000.59 1000.08 999.56 999.36 998.74 998.23 998.08 998.00 997.51 996.63 995.64 994.19 993.87 992.69 992.25 992.68 993.30 994.20 995.28 996.09 996.95 997.52 997.90 998.41 999.31 1000.02 1000.45 1001.34 1002.52 1003.20 1003.40 1003.54 1004.24 1004.69 1005.14 1005.61 1006.05 1006.00
1002.75 1002.40 1002.12 1001.59 1001.05 1000.41 1000.07 999.54 999.08 998.80 998.31 998.15 997.56 997.49 997.26 996.55 995.36 993.61 993.74 993.69 993.79 994.26 994.79 995.35 996.21 997.05 997.70 998.48 998.95 999.45 1000.17 1000.89 1002.00 1003.02 1003.64 1004.15 1004.38 1004.54 1005.16 1005.44 1005.70 1006.14 1006.86 1007.37
1002.62 1002.38 1001.78 1001.26 1000.86 1000.23 999.58 998.90 998.49 998.18 997.70 997.30 997.18 997.07 996.92 996.25 995.43 994.08 994.03 994.58 994.99 995.43 996.09 996.48 997.15 997.91 998.78 999.26 999.94 1000.60 1001.24 1001.93 1002.54 1003.30 1004.04 1004.38 1004.56 1004.75 1005.27 1006.24 1007.15 1007.39 1007.63 1008.08
1002.44 1002.25 1001.95 1001.36 1000.78 1000.18 999.35 998.73 998.17 997.70 997.04 996.73 996.95 997.08 996.96 996.25 995.89 994.96 995.10 995.74 996.05 996.53 997.15 997.64 998.29 999.02 999.54 1000.14 1000.70 1001.21 1001.86 1002.74 1003.20 1003.73 1004.18 1004.74 1005.14 1005.55 1006.12 1007.10 1007.66 1008.17 1008.62 1008.32
1002.39 1002.13 1001.68 1001.11 1000.91 1000.38 999.91 999.35 998.81 998.10 997.43 996.83 996.79 996.94 997.06 996.81 996.38 996.02 996.35 996.73 996.87 997.51 998.10 998.79 999.41 999.91 1000.21 1000.74 1001.38 1001.97 1002.62 1003.11 1003.55 1003.89 1004.35 1004.51 1005.43 1006.18 1006.82 1007.84 1008.42 1008.66 1008.86 1008.27
1002.49 1002.01 1001.76 1001.47 1001.30 1001.06 1000.61 1000.15 999.74 999.10 998.45 997.34 997.35 997.30 997.20 997.47 997.76 997.70 997.93 998.12 998.38 998.68 999.25 999.72 1000.28 1000.38 1000.75 1001.15 1001.61 1002.33 1002.94 1003.26 1003.58 1003.97 1004.50 1004.92 1005.59 1006.18 1006.77 1007.41 1007.88 1008.44 1008.67 1008.67
1002.56 1002.33 1002.19 1002.00 1001.74 1001.41 1000.94 1000.53 1000.09 999.62 999.19 998.56 998.37 998.16 997.61 998.42 998.60 998.61 998.93 999.33 999.61 1000.13 1000.47 1000.72 1000.88 1000.96 1001.23 1001.60 1001.87 1002.28 1003.01 1003.51 1003.76 1004.08 1004.52 1005.22 1005.62 1005.93 1006.27 1006.66 1007.31 1007.94 1008.20 1008.37
1002.50 1002.37 1002.34 1002.16 1001.98 1001.80 1001.40 1000.90 1000.44 999.95 999.64 999.15 998.99 999.00 998.84 999.34 999.87 999.82 999.90 1000.28 1000.67 1000.84 1001.34 1001.24 1001.23 1001.28 1001.54 1001.84 1002.17 1002.67 1002.96 1003.29 1003.66 1004.22 1004.69 1005.22 1005.52 1005.48 1005.77 1006.20 1006.61 1006.94 1007.30 1007.24
1002.44 1002.33 1002.27 1002.22 1002.10 1001.99 1001.65 1001.17 1000.74 1000.30 1000.02 999.82 999.69 999.81 999.72 999.98 1000.28 1000.51 1000.81 1001.02 1001.33 1001.46 1001.63 1001.63 1001.61 1001.66 1001.97 1002.24 1002.26 1002.42 1002.78 1003.35 1003.60 1003.96 1004.57 1004.94 1005.18 1005.30 1005.38 1005.56 1005.67 1005.89 1006.11 1006.16
1002.49 1002.35 1002.32 1002.27 1002.25 1002.16 1001.98 1001.56 1001.13 1000.86 1000.60 1000.40 1000.38 1000.63 1000.64 1000.75 1000.82 1001.03 1001.34 1001.41 1001.74 1001.85 1001.93 1001.95 1002.08 1002.32 1002.53 1002.60 1002.51 1002.69 1002.87 1003.40 1003.61 1004.02 1004.42 1004.64 1004.78 1004.88 1005.00 1005.04 1005.20 1005.33 1005.33 1005.37
1002.52 1002.38 1002.32 1002.28 1002.25 1002.26 1002.16 1001.92 1001.60 1001.42 1001.24 1001.14 1001.06 1001.10 1001.16 1001.15 1001.08 1001.36 1001.60 1001.80 1002.07 1002.12 1002.25 1002.49 1002.63 1002.69 1002.84 1002.98 1002.94 1003.12 1003.41 1003.63 1003.95 1004.24 1004.40 1004.30 1004.24 1004.32 1004.39 1004.49 1004.53 1004.70 1004.54 1004.65
1002.76 1002.58 1002.41 1002.33 1002.18 1002.14 1002.23 1002.11 1001.93 1001.83 1001.80 1001.70 1001.62 1001.57 1001.56 1001.51 1001.51 1001.79 1002.10 1002.32 1002.38 1002.55 1002.75 1002.86 1002.89 1003.03 1003.08 1003.26 1003.51 1003.61 1003.76 1003.80 1004.07 1004.23 1004.19 1004.18 1004.24 1004.21 1004.26 1004.17 1004.12 1004.14 1004.17 1004.06
1003.06 1002.88 1002.61 1002.53 1002.36 1002.14 1002.06 1002.13 1002.13 1002.07 1002.02 1002.03 1002.01 1001.89 1001.85 1001.97 1002.10 1002.03 1002.17 1002.42 1002.70 1002.81 1002.84 1002.96 1003.07 1003.17 1003.35 1003.49 1003.69 1003.86 1004.00 1003.85 1003.88 1004.03 1003.96 1004.08 1004.09 1004.04 1004.00 1003.89 1003.87 1003.82 1003.75 1003.67
1003.00 1002.99 1002.86 1002.72 1002.72 1002.71 1002.52 1002.20 1002.18 1002.27 1002.18 1002.11 1002.01 1002.00 1001.92 1002.02 1002.18 1002.52 1002.60 1002.81 1003.02 1003.09 1003.17 1003.22 1003.26 1003.29 1003.54 1003.64 1003.81 1003.96 1003.95 1004.07 1004.06 1004.05 1004.06 1004.07 1004.07 1004.04 1003.96 1003.85 1003.76 1003.80 1003.59 1003.36
1002.91 1003.06 1003.11 1003.16 1003.17 1003.02 1002.87 1002.61 1002.36 1002.17 1002.02 1001.97 1001.93 1001.97 1002.10 1002.16 1002.28 1002.57 1002.88 1003.11 1003.31 1003.33 1003.40 1003.50 1003.45 1003.49 1003.54 1003.68 1004.01 1004.19 1004.28 1004.32 1004.27 1004.28 1004.20 1004.28 1004.17 1004.20 1004.32 1004.15 1004.04 1004.06 1003.95 1003.77
1002.78 1002.99 1003.12 1003.20 1003.19 1003.24 1003.20 1003.03 1002.75 1002.45 1002.20 1001.90 1001.75 1001.84 1002.13 1002.40 1002.64 1002.95 1003.14 1003.24 1003.27 1003.38 1003.50 1003.54 1003.56 1003.57 1003.76 1004.08 1004.39 1004.51 1004.50 1004.59 1004.52 1004.41 1004.48 1004.54 1004.46 1004.95 1005.00 1004.95 1004.91 1004.81 1004.60 1004.24
Thickness
5440 5452 5456 5454 5460 5455 5446 5447 5441 5464 5458 5501 5481 5481 5486 5490 5499 5508 5517 5520 5540 5551 5559 5564 5568 5574 5579 5579 5579 5588 5595 5590 5584 5594 5599 5604 5601 5591 5588 5580 5574 5575 5571 5562
5427 5444 5439 5433 5440 5450 5446 5454 5446 5451 5454 5466 5452 5461 5473 5476 5477 5490 5500 5509 5522 5537 5552 5554 5557 5558 5563 5565 5561 5563 5579 5576 5575 5564 5561 5572 5577 5576 5573 5561 5559 5559 5553 5548
5408 5425 5423 5414 5439 5442 5445 5446 5441 5430 5443 5429 5432 5439 5448 5457 5457 5472 5482 5493 5507 5519 5538 5543 5546 5545 5547 5548 5544 5545 5548 5550 5552 5556 5546 5558 5546 5550 5547 5549 5543 5537 5534 5533
5398 5404 5399 5429 5432 5433 5431 5425 5413 5412 5415 5416 5418 5425 5433 5437 5446 5455 5467 5477 5487 5500 5518 5529 5533 5533 5533 5533 5533 5533 5532 5536 5529 5531 5535 5525 5532 5532 5529 5522 5524 5521 5516 5515
5375 5394 5411 5421 5410 5411 5412 5415 5406 5402 5403 5407 5407 5407 5427 5432 5439 5444 5452 5461 5469 5482 5495 5507 5517 5519 5518 5519 5518 5521 5522 5520 5518 5519 5523 5526 5520 5520 5510 5505 5505 5505 5501 5502
5366 5362 5388 5412 5407 5403 5397 5386 5398 5400 5401 5397 5396 5389 5422 5432 5428 5432 5441 5451 5461 5468 5479 5492 5500 5506 5503 5500 5504 5503 5506 5502 5502 5494 5492 5502 5504 5499 5494 5495 5494 5488 5488 5483
5362 5372 5375 5381 5390 5389 5368 5384 5392 5392 5390 5390 5389 5396 5412 5423 5428 5426 5435 5445 5455 5460 5471 5486 5494 5495 5495 5487 5493 5494 5491 5486 5483 5479 5474 5476 5475 5487 5479 5469 5471 5481 5475 5466
5336 5349 5358 5381 5379 5374 5378 5389 5388 5388 5385 5387 5394 5398 5398 5409 5418 5430 5430 5441 5452 5457 5468 5479 5479 5484 5482 5479 5476 5475 5475 5470 5468 5465 5464 5459 5459 5464 5471 5461 5457 5454 5460 5461
5359 5351 5369 5370 5374 5385 5382 5382 5384 5381 5384 5383 5386 5392 5393 5399 5412 5416 5430 5447 5464 5462 5466 5469 5471 5475 5472 5465 5463 5465 5463 5458 5455 5452 5449 5446 5446 5448 5451 5451 5448 5439 5434 5441
5370 5385 5384 5382 5377 5375 5378 5376 5376 5376 5378 5378 5383 5387 5387 5395 5404 5411 5423 5456 5461 5464 5458 5457 5457 5458 5461 5454 5451 5449 5448 5448 5445 5444 5440 5435 5440 5435 5431 5431 5433 5433 5430 5426
5366 5372 5372 5379 5374 5371 5369 5368 5370 5374 5372 5377 5377 5380 5382 5393 5400 5406 5422 5438 5447 5443 5439 5439 5446 5439 5439 5444 5441 5436 5434 5429 5429 5438 5430 5423 5425 5428 5430 5426 5423 5426 5426 5426
5338 5358 5354 5357 5359 5356 5356 5361 5364 5360 5365 5367 5368 5373 5381 5389 5395 5408 5412 5427 5434 5434 5434 5432 5429 5427 5425 5425 5429 5427 5422 5422 5424 5422 5415 5415 5415 5417 5416 5418 5418 5417 5415 5418
5343 5344 5343 5346 5350 5354 5354 5357 5359 5356 5360 5359 5368 5372 5378 5383 5392 5417 5415 5415 5418 5417 5416 5419 5415 5415 5412 5411 5412 5413 5410 5411 5405 5402 5403 5402 5405 5408 5404 5405 5406 5406 5401 5396
5337 5339 5344 5350 5348 5348 5352 5356 5358 5357 5358 5362 5366 5374 5376 5382 5387 5411 5413 5407 5407 5407 5404 5406 5405 5403 5399 5398 5397 5398 5400 5398 5399 5397 5392 5395 5399 5400 5398 5393 5388 5387 5386 5382
5336 5335 5334 5339 5341 5341 5347 5349 5351 5355 5359 5360 5364 5369 5374 5375 5380 5397 5399 5396 5396 5395 5393 5394 5393 5391 5389 5388 5389 5390 5389 5386 5386 5385 5385 5383 5385 5384 5382 5378 5378 5375 5369 5374
5331 5329 5330 5334 5333 5334 5335 5337 5337 5344 5349 5359 5365 5369 5369 5368 5374 5382 5386 5386 5390 5388 5386 5382 5381 5379 5381 5381 5380 5380 5379 5379 5380 5382 5382 5385 5379 5375 5373 5363 5359 5358 5355 5359
5325 5328 5325 5323 5321 5319 5322 5324 5326 5331 5336 5352 5355 5359 5362 5361 5361 5364 5367 5370 5372 5374 5372 5372 5370 5374 5376 5376 5377 5376 5375 5377 5378 5379 5377 5376 5373 5371 5366 5361 5354 5350 5348 5344
5325 5324 5321 5319 5316 5315 5316 5317 5320 5324 5328 5335 5340 5345 5359 5355 5354 5356 5357 5358 5359 5356 5356 5359 5362 5367 5370 5372 5374 5375 5371 5370 5372 5372 5371 5366 5365 5365 5361 5354 5349 5343 5339 5341
5326 5324 5319 5317 5314 5310 5310 5312 5314 5317 5319 5326 5331 5335 5343 5339 5339 5344 5347 5346 5347 5352 5349 5353 5358 5364 5366 5366 5366 5365 5367 5368 5368 5365 5362 5359 5357 5357 5355 5351 5345 5343 5340 5342
5325 5324 5320 5315 5311 5307 5305 5305 5305 5309 5312 5317 5322 5325 5331 5331 5332 5336 5338 5340 5341 5343 5345 5349 5353 5358 5358 5358 5361 5364 5364 5361 5362 5360 5355 5352 5351 5351 5349 5346 5345 5338 5336 5335
5321 5320 5316 5313 5309 5305 5301 5301 5300 5300 5304 5310 5312 5312 5319 5323 5326 5330 5329 5335 5335 5337 5340 5343 5346 5347 5348 5351 5356 5357 5358 5355 5354 5351 5348 5346 5344 5342 5341 5340 5338 5334 5331 5330
5322 5318 5314 5311 5310 5305 5301 5299 5298 5295 5298 5301 5304 5307 5311 5316 5321 5323 5325 5328 5329 5331 5334 5335 5337 5339 5340 5342 5345 5345 5344 5343 5341 5339 5338 5338 5338 5336 5335 5333 5332 5329 5330 5328
5311 5312 5313 5311 5310 5307 5301 5299 5293 5292 5288 5290 5297 5302 5306 5311 5316 5317 5317 5319 5322 5323 5325 5327 5330 5331 5334 5333 5333 5333 5333 5332 5330 5329 5329 5328 5326 5325 5322 5321 5320 5320 5320 5320
5303 5305 5307 5305 5304 5306 5306 5300 5297 5295 5291 5293 5293 5297 5302 5304 5304 5308 5310 5310 5310 5313 5318 5320 5322 5323 5324 5324 5324 5323 5323 5325 5324 5323 5322 5318 5314 5310 5306 5304 5302 5304 5307 5309
5297 5298 5299 5300 5297 5297 5297 5298 5297 5294 5294 5295 5295 5295 5298 5299 5301 5299 5301 5302 5304 5307 5309 5311 5313 5315 5314 5315 5315 5314 5315 5315 5314 5313 5310 5306 5299 5292 5284 5277 5275 5279 5289 5296
5292 5290 5287 5287 5288 5289 5289 5291 5292 5293 5293 5291 5291 5290 5291 5293 5295 5295 5294 5295 5295 5299 5300 5302 5304 5306 5307 5307 5305 5305 5304 5303 5302 5299 5296 5291 5286 5278 5270 5265 5264 5266 5273 5280
5281 5281 5281 5281 5281 5280 5281 5282 5283 5285 5286 5288 5289 5286 5286 5284 5285 5284 5285 5287 5289 5291 5293 5295 5296 5297 5297 5296 5294 5293 5293 5291 5289 5286 5282 5279 5276 5268 5263 5259 5258 5259 5264 5270